COSMOS 2526

Last updated on Jan. 17, 2021, 6:29 a.m. UTC

1 43432U 18037A   21016.74424610 -.00000349  00000-0  00000-0 0  9990
2 43432   0.0348 111.2273 0000910 208.9097 192.2030  1.00271554 10132
UTC
Height (km)
Latitude
Longitude
Inclination
Orbital Period
UTC large
Height (km)
Speed (km/s)
/
Latitude / Longitude
Inclination (degrees)
Orbital Period (minutes)
Azimuth
Elevation
Range (km)
Doppler Factor
iOS Compass Heading
iOS Angle

Next 30 passes for location: Hong Kong

Rise time Rise Azimuth (degrees) Set time Set Azimuth (degrees) Duration Max altitude (degrees)

No matching passes for this satellites